星链-4677 (STARLINK-4677 )

导读 | 豆包AI

STARLINK-4677是美国于2022年8月28日发射的星链卫星,隶属于SpaceX打造的星链卫星互联网星座项目。星链旨在为全球提供低延迟、高速率的宽带互联网服务,该卫星入轨后,进一步扩充了星链星座的在轨规模,助力覆盖范围与服务能力的提升,推动全球卫星互联网组网进程。

Basic Information
目录编号:
53600
目录名称:
STARLINK-4677
国际标识:
2022-104N
轨道中心:
EARTH
卫星名称:
星链-4677
卫星全名:
星链-4677 (STARLINK-4677 )
卫星状态:
在轨 (已飞行1295 天)
发射日期:
2022-08-28 UTC
国别 :
美国 (US)
星等 :
--
Orbit Information
数据来源 国际轨道数据 AOE轨道数据
星历时间 2026-03-15T03:42:34+0800
12小时前
查看轨道信息
2026-03-12T14:00:00+0800
3天前
查看轨道信息
半长轴 6917.876km 6917.866km
偏心率 0.0001339 0.0001205
轨道倾角 53.216° 53.217°
近地点辐角 97.584° 89.349°
升交点赤经 221.488° 233.034°
平近点角 262.531° 336.669°
近地点 538.812km 538.895km
远地点 540.666km 540.563km
周期 95.437分钟 95.437分钟
每日圈数 15.088417 15.088449
Detailed Information
固有亮度:
5
最大亮度:
2.5
卫星平台:
Starlink v1.5
覆盖范围:
全球
运营商:
太空探索技术公司
运营商所在国:
美国
制造商(研发单位):
太空探索技术公司
制造商所在国:
美国
使用方式:
暂无
Satellite Introduction
星链(Starlink)计划是由太空探索技术公司(SpaceX)提出的一个巨型低轨卫星互联网星座项目,计划在2019年至2024年间在太空搭建由约1.2万颗卫星组成的“星链”网络,其中1584颗将部署在地球上空550千米处的近地轨道,并从2020年开始工作。该卫星仍在工作。
2D Orbit Map
3D Orbit Map
Orbit Altitude Analysis Chart
Orbit Inclination Analysis Chart
Orbit Comprehensive Analysis Chart
View Comprehensive Chart